• Processing (Info)

  • MPEC 2024-P147 : 2024 PV3

    The following Minor Planet Electronic Circular may be linked-to from your own Web pages, but must not otherwise be redistributed electronically.

    A form allowing access to any MPEC is at the bottom of this page.


    Read MPEC 2024-P146 Read MPEC 2024-P148


    M.P.E.C. 2024-P147                              Issued 2024 August 13, 00:16 UT
    
         The Minor Planet Electronic Circulars contain information on unusual
             minor planets, routine data on comets and natural satellites,
             and occasional editorial announcements.  They are published
        on behalf of Division F of the International Astronomical Union by the
              Minor Planet Center, Smithsonian Astrophysical Observatory,
                              Cambridge, MA 02138, U.S.A.
    			  
                 Prepared using the Tamkin Foundation Computer Network
    
                                  MPC@CFA.HARVARD.EDU
                URL https://www.minorplanetcenter.net/    ISSN 1523-6714
    
                                    2024 PV3                                 
    
    
    Observations:
         K24P03V*3C2024 08 10.91322 21 23 30.461-08 29 27.05         20.0 G EP147095
         K24P03V 3C2024 08 10.99667 21 22 21.243-08 43 31.60         20.0 G EP147095
         K24P03V 3C2024 08 11.86984 21 10 20.403-11 14 30.80         19.9 G EP147095
         K24P03V 3C2024 08 11.97207 21 08 49.378-11 32 31.79         19.9 G EP147095
         K24P03V KC2024 08 12.87282 20 55 30.68 -14 14 07.4          18.8 GXEP147L51
         K24P03V KC2024 08 12.87438 20 55 29.23 -14 14 24.4          18.9 GXEP147L51
         K24P03V KC2024 08 12.87593 20 55 27.76 -14 14 41.5          18.9 GXEP147L51
         K24P03V KC2024 08 12.99182720 53 39.10 -14 35 42.9          19.1 GXEP147L01
         K24P03V KC2024 08 12.99338420 53 37.63 -14 35 59.3          19.3 GXEP147L01
         K24P03V KC2024 08 12.99651020 53 34.63 -14 36 33.8                XEP147L01
    
    Observer details:
    095 Crimea-Nauchnyi.  Observer S. Nazarov.  Measurer A. Chernyshov.  0.28-m
        f/2 reflector + CCD.
    L01 Visnjan Observatory, Tican.  Observers K. Korlevic, L. Poropat, L.
        Ivanovic, I. Novotny, E. Pettarin, M. Spoler.  Measurer E. Pettarin.
        1.0-m f/2.9 reflector + CCD.
    L51 MARGO, Nauchnyi.  Observer G. Borisov.  0.50-m f/1.9 reflector + CCD.
    
    Orbital elements:
    2024 PV3                                                 Earth MOID = 0.0464 AU
    Epoch 2024 Oct. 17.0 TT = JDT 2460600.5                 MPC                     
    M 315.89955              (2000.0)            P               Q                  
    n   1.58996020     Peri.  347.45439     -0.62048317     -0.76853213             
    a   0.7270181      Node   140.58851     +0.73907831     -0.63961692             
    e   0.5419655      Incl.   14.23087     +0.26222870     -0.01576586             
    P   0.62           H   24.38          G   0.15           U   9                  
    Residuals in seconds of arc
    240810 095  0.0   0.3+    240812 L51  0.0   0.3-    240812 L01  0.2-  0.7+
    240810 095  0.0   0.3-    240812 L51  0.5+  0.3-    240812 L01  0.4-  0.2+
    240811 095  0.1-  0.2-    240812 L51  0.5+  0.5-
    240811 095  0.5+  0.2+    240812 L01  0.4-  0.2+
    
    Ephemeris:
    2024 PV3                 a,e,i = 0.73, 0.54, 14                  q = 0.3330
    Date    TT    R. A. (2000) Decl.     Delta      r    Elong.  Phase     V
    2024 07 14    23 39 25.9 +19 32 34   0.2476  1.1151   107.2    60.5    23.8
    ...
    2024 07 29    23 06 00.2 +13 16 09   0.1503  1.1191   130.7    43.5    22.2
    ...
    2024 08 06    22 17 01.3 +03 05 42   0.1053  1.1094   153.3    24.2    20.8
    ...
    2024 08 12    21 08 28.3 -11 35 55   0.08376 1.0967   174.3     5.3    19.6
    2024 08 13    20 53 34.0 -14 35 32   0.08194 1.0942   170.9     8.4    19.7
    2024 08 14    20 37 42.2 -17 38 03   0.08074 1.0915   165.9    13.1    19.9
    ...
    2024 08 20    18 50 49.3 -33 15 08   0.08654 1.0725   132.8    43.8    20.9
    ...
    2024 08 28    16 52 04.8 -41 01 00   0.1188  1.0396   101.1    72.4    22.4
    ...
    2024 09 12    15 10 33.7 -41 12 55   0.1995  0.9538    69.1    99.6    24.4
    
    A. U. Tomatic                (C) Copyright 2024 MPC           M.P.E.C. 2024-P147
    


    Read MPEC 2024-P146 Read MPEC 2024-P148


    MPEC number:

    Enter an MPEC number in one of the following forms:

    • 1997-B01 (the full form)
    • J97B01 (the packed version of the full form)
    • B01 (the abbreviated form)